OpenBCM V2.0.3 (Linux)

Packet Radio Mailbox

IZ3LSV

[San Dona' di P. JN]

 Login: GUEST





  
I0OJJ  > AMSAT    22.08.26 11:00l 331 Lines 15656 Bytes #999 (0) @ WW
BID : NXIG_IR0EQ
Read: GUEST
Subj: 2Line Orbital Elements
Path: IZ3LSV<ED1ZAC<LU1DBQ<IR0EQ
Sent: 260820/0027z @:IR0EQ.ITA.EU [Rome] $:NXIG_IR0EQ

>From i0ojj@rgate.ampr.org Thu Aug 20 02:27:39 2026
Received: from rgate.ampr.org by rgate.ampr.org (JNOS2.0q.1) with SMTP
	id AA1116520 ; Thu, 20 Aug 2026 02:27:39 +0200
Received: by rgate.ampr.org with SMTP
	id AA1116517 ; Thu, 20 Aug 2026 02:27:02 +0200
Message-Id: <1116518@rgate.ampr.org>
>From: i0ojj@rgate.ampr.org

SB KEPS @ AMSAT  $ORB26232.1
2Line Orbital Elements 26232.AMSAT

QST de W1STR

AMSAT Orbital Elements for Amateur Satellites in TLE Format
>From Orbital Analysis Office
New England Sci-Tech STEM Education Center
Natick MA August 20, 2026
To all radio amateurs


These element sets describe the orbits of various satellites 
in use by the amateur radio community. For details see:
www.amsat.org/keplerian-elements-formats/

A daily update of element sets is available at:
www.amsat.org/tle/daily-bulletin.txt
or without bulletin text:
www.amsat.org/tle/dailytle.txt


AO-07
1 07530U 74089B   26231.01629047 -.00000047  00000-0 -50257-5 0  9993
2 07530 101.9919 244.9197 0012332  13.2706  15.2415 12.53699154368395
UO-11
1 14781U 84021B   26231.17696460  .00001331  00000-0  14051-3 0  9991
2 14781  97.8121 196.0743 0007175 348.2390  11.8660 14.90928482266519
LO-19
1 20442U 90005G   26231.32224374  .00000067  00000-0  40750-4 0  9990
2 20442  98.8843 254.8632 0011973  26.2399 333.9389 14.34138452911448
AO-27
1 22825U 93061C   26231.14075277  .00000049  00000-0  35737-4 0  9997
2 22825  98.6832 298.5164 0007211 276.3474  83.6887 14.30956029716009
FO-29
1 24278U 96046B   26231.44931114 -.00000032  00000-0  64756-5 0  9998
2 24278  98.5194  71.6496 0348856 292.3477  64.1040 13.53276865481725
GO-32
1 25397U 98043D   26231.21259679  .00000039  00000-0  36867-4 0  9991
2 25397  99.0122 225.5757 0002145  60.0050 300.1341 14.24438703460308
ISS
1 25544U 98067A   26231.53387315  .00011071  00000-0  20501-3 0  9990
2 25544  51.6332 346.5707 0007665  63.0282 297.1489 15.49512520581579
NO-44
1 26931U 01043C   26230.94987047  .00000079  00000-0  60312-4 0  9992
2 26931  67.0497  81.9373 0005648 269.6282  90.4172 14.31975923299439
SO-50
1 27607U 02058C   26231.60653983  .00000820  00000-0  11409-3 0  9999
2 27607  64.5520 292.7496 0073290 250.8364 108.4800 14.83165555273864
CO-55
1 27844U 03031E   26230.97857787  .00000200  00000-0  10536-3 0  9993
2 27844  98.6762 238.7544 0009737  10.8723 349.2665 14.24368449200614
RS-22
1 27939U 03042A   26231.64077486  .00000895  00000-0  14570-3 0  9997
2 27939  98.3490  57.8047 0012524  69.4436  18.5368 14.73564046224898
CO-65
1 32785U 08021C   26231.61125705  .00004353  00000-0  27217-3 0  9994
2 32785  97.8343 214.3941 0009161 160.8711 199.2863 15.09960399994760
CO-66
1 32791U 08021J   26230.96254699  .00019882  00000-0  59284-3 0  9995
2 32791  97.7555 231.9649 0004935  91.6630 268.5177 15.34689618996913
RS-30
1 32953U 08025A   26231.59569411 -.00000019  00000-0 -20984-3 0  9999
2 32953  82.5068 316.0050 0019984 170.1842 189.9632 12.43181982827578
SRMSAT
1 37841U 11058D   26230.79293332  .00000356  00000-0  49316-4 0  9990
2 37841  19.9729  40.5228 0011659 172.5710 310.2435 14.11586993766675
ZACUBE-1
1 39417U 13066B   26231.12300945  .00005167  00000-0  39620-3 0  9990
2 39417  97.8024 193.7583 0042399  42.2234 318.2242 15.01552771690175
Delfi-N3xt
1 39428U 13066N   26231.20959303  .00008558  00000-0  73150-3 0  9992
2 39428  97.8298 151.4780 0073680 358.6907   1.4109 14.95778096684042
GOMX-1
1 39430U 13066Q   26231.44069705  .00000938  00000-0  14745-3 0  9998
2 39430  97.6453  67.9154 0126873 233.9230 125.0174 14.69611199679207
LO-74
1 39440U 13066AA  26230.82046562  .00002501  00000-0  23219-3 0  9990
2 39440  97.8945 180.0952 0056959 177.9592 182.1871 14.94130053686348
AO-73
1 39444U 13066AE  26230.88277052  .00007766  00000-0  47176-3 0  9996
2 39444  97.8336 203.6912 0035493 353.4441   6.6319 15.10249499689128
DTUSAT-2
1 40030U 14033W   26230.96733594  .00006278  00000-0  33305-3 0  9997
2 40030  98.0906 232.7265 0008677  32.7005 327.4762 15.15721255662192
LILACSAT-2
1 40908U 15049K   26231.56777667  .00019058  00000-0  30192-3 0  9996
2 40908  97.4600 270.8907 0007206  37.5291 322.6464 15.53433324605588
Lapan A3
1 41603U 16040E   26231.62541081  .00003034  00000-0  96001-4 0  9996
2 41603  97.1542 225.7179 0011331 139.5689 220.6398 15.33455536564530
CAS-2T
1 41847U 16066G   26231.19279180  .00000429  00000-0  70309-4 0  9992
2 41847  98.3782 306.2081 0340208 298.4869  58.2449 14.44808901513893
TechnoSat
1 42829U 17042E   26231.00789112  .00002027  00000-0  14566-3 0  9997
2 42829  97.4357  26.3174 0016097 236.5603 123.4085 15.05261897496155
AO-91
1 43017U 17073E   26231.16500010  .00009056  00000-0  38520-3 0  9991
2 43017  97.4612  97.0955 0149961 110.7780 250.9592 15.13511619474915
S-Net D
1 43186U 18014G   26231.19366542  .00004371  00000-0  22337-3 0  9991
2 43186  97.5279 135.5899 0008841 148.4944 211.6820 15.17172426468316
S-Net B
1 43187U 18014H   26231.47020866  .00004584  00000-0  23421-3 0  9990
2 43187  97.5288 135.8530 0009588 144.5078 215.6795 15.17143435468353
S-Net A
1 43188U 18014J   26231.12624666  .00004489  00000-0  22919-3 0  9996
2 43188  97.5297 135.7322 0009431 145.9274 214.2567 15.17181070468306
S-Net C
1 43189U 18014K   26231.54041802  .00004831  00000-0  24664-3 0  9998
2 43189  97.5312 136.2283 0011021 139.3392 220.8666 15.17133574466917
Ten-Koh
1 43677U 18084G   26231.10114948  .00002268  00000-0  17277-3 0  9995
2 43677  98.0742  66.1211 0008603 268.4633  91.5606 15.03150197425612
PO-101
1 43678U 18084H   26231.58490503  .00001184  00000-0  98721-4 0  9992
2 43678  98.1208  70.5821 0010526 323.8786  36.1724 15.00657907425725
QO-100
1 43700U 18090A   26231.56273066  .00000142  00000-0  00000-0 0  9998
2 43700   0.0185 217.8618 0002499 318.5191  19.9105  1.00274607 28311
MinXSS-2
1 43758U 18099A   26231.20318018  .00046384  00000-0  79120-3 0  9998
2 43758  97.4479 309.5206 0006492  46.0564 314.1222 15.51188662423883
AO-95
1 43770U 18099N   26231.43121384  .00012639  00000-0  46573-3 0  9997
2 43770  97.4331 291.4809 0010067 120.2970 239.9267 15.27911473422879
SNUSat 2
1 43782U 18099AA  26231.10816314  .00007646  00000-0  33051-3 0  9997
2 43782  97.4006 283.5450 0011812  78.8234 281.4330 15.22686050422604
SnugLite
1 43784U 18099AC  26231.08438637  .00010950  00000-0  39862-3 0  9992
2 43784  97.3814 284.7823 0004479  80.2477 279.9268 15.28382377422924
ITASat 1
1 43786U 18099AE  26231.11257619  .00006039  00000-0  28501-3 0  9998
2 43786  97.3977 281.3813 0013829 128.3530 231.8950 15.19736429422466
EAGLET 1
1 43790U 18099AJ  26231.07390967  .00003788  00000-0  21575-3 0  9994
2 43790  97.4182 279.0770 0012529 124.0750 236.1673 15.13344652421847
ESEO
1 43792U 18099AL  26231.37115499  .00001675  00000-0  12386-3 0  9997
2 43792  97.3943 266.0471 0013538 115.0606 245.2028 15.04411365421300
JO-97
1 43803U 18099AX  26231.14906115  .00018225  00000-0  52960-3 0  9999
2 43803  97.4070 294.2689 0006565  59.6894 300.4998 15.35503691423280
Suomi 100
1 43804U 18099AY  26231.15934368  .00012163  00000-0  42382-3 0  9994
2 43804  97.4131 291.3604 0010991  64.1093 296.1279 15.29742287423040
ISAT
1 43879U 18111D   26230.79875977  .00208552  00000-0  10948-2 0  9991
2 43879  97.5809 171.4841 0008564  99.7152 260.5083 15.80136000421008
UWE-4
1 43880U 18111E   26231.62712661  .00039558  00000-0  70692-3 0  9997
2 43880  97.5816 163.1198 0010100  93.2440 266.9966 15.49871006420599
Sparrow
1 43881U 18111F   26228.98401838  .16116594  28263-5  19760-3 0  9992
2 43881  97.5857 177.1140 0010462 202.8700 157.2139 16.49385238421037
Prox-1
1 44339U 19036A   26230.81970112  .00011838  00000-0  11136-2 0  9999
2 44339  23.9954  55.4145 0006202  41.6467 318.4505 14.91902050382830
Taurus 1
1 44530U 19059C   26231.57840446  .00005532  00000-0  87577-3 0  9994
2 44530  98.6481  40.3903 0009681 111.2524 248.9716 14.72665718367979
TO-108
1 44881U 19093C   26231.65321683  .00000211  00000-0  29818-4 0  9991
2 44881  97.7485 302.3265 0012147 235.1887 124.8186 14.86600981360841
RS-44
1 44909U 19096E   26231.17430000  .00000009  00000-0 -58931-5 0  9991
2 44909  82.5221 297.8583 0217348 357.4188   2.5773 12.79748843310406
SALSAT
1 46495U 20068K   26230.98741105  .00007801  00000-0  26622-3 0  9999
2 46495  97.8885 237.9224 0011393  83.9163 276.3374 15.30580771324964
CSS (TIANHE-1)
1 48274U 21035A   26231.58434056  .00009764  00000-0  12555-3 0  9992
2 48274  41.4692 297.1629 0001461 258.8922 101.1752 15.59083481303060
TeikyoSat 4
1 49396U 21102B   26231.55481179  .00001700  00000-0  10907-3 0  9999
2 49396  97.3652 258.5742 0013694  77.1103 283.1656 15.09698842262283
Z-Sat
1 49399U 21102E   26231.59109597  .00002994  00000-0  14704-3 0  9992
2 49399  97.3295 264.9953 0017433  31.3667 328.8604 15.18687049263060
KOSEN 1
1 49402U 21102H   26231.36767767  .00007519  00000-0  28044-3 0  9991
2 49402  97.3145 272.3168 0012825 352.0413   8.0621 15.27628977263669
HO-113
1 50466U 21131B   26231.64140383  .00000497  00000-0  16714-3 0  9994
2 50466  98.4976 323.6882 0002853 268.0616  92.0246 14.41407184244259
SNUGLITE 2
1 52899U 22065F   26230.96118930  .00000804  00000-0  16104-3 0  9995
2 52899  98.2288  15.7137 0007512 176.9933 183.1316 14.64444989220188
UmKA 1 (RS40S)
1 57172U 23091G   26231.63906781  .00005957  00000-0  26801-3 0  9997
2 57172  97.4995 290.1022 0010846 255.4065 104.5968 15.21432049173655
CubeBel-2 (EU11S)
1 57175U 23091K   26231.62795746  .00013365  00000-0  45471-3 0  9992
2 57175  97.4995 295.4587 0007943 243.5101 116.5325 15.30528856174007
RS-38S
1 57189U 23091Z   26231.62523183  .00017597  00000-0  47482-3 0  9996
2 57189  97.5038 302.4515 0006788 189.0456 171.0667 15.37826100174436
